Simultaneous Nadir Overpasses (SNOs) Predictions

Prediction of SNOs between GOES-17 and METOP-C Satellite Orbit:

Table of predicted SNOs for the next 14.0 days since TLE Epoch: 10/28/2022
Index Date Time (GOES-17) GOES-17 Lat,Lon METOP-C Lat,Lon Distance(km) Time Diff (sec)
1 10/29/2022 18:39:02 -0.06,-137.33 -0.17,-136.91 48.58 80
2 10/31/2022 06:58:04 0.05,-137.32 -0.86,-141.50 476.15 80
3 11/01/2022 06:34:44 0.05,-137.31 0.21,-136.50 92.25 80
4 11/02/2022 18:53:37 -0.05,-137.30 0.77,-141.07 428.60 80
5 11/03/2022 18:35:38 -0.04,-137.30 -0.30,-136.07 139.72 80
6 11/05/2022 06:54:39 0.04,-137.28 -0.71,-140.67 385.15 80
7 11/06/2022 06:31:21 0.04,-137.28 0.43,-135.68 182.99 80
8 11/07/2022 18:50:13 -0.04,-137.26 0.62,-140.23 338.60 80
9 11/08/2022 18:32:15 -0.04,-137.25 -0.52,-135.24 229.22 80
10 11/10/2022 06:51:15 0.04,-137.23 -0.53,-139.83 296.48 80
11 11/11/2022 06:27:55 0.03,-137.21 0.56,-134.83 270.90 80
